[[{"header":{"parameterUnit":"m.s-1","parameterCategory":1,"la1":30.2991,"la2":30.254,"lo1":-89.0895,"lo2":-89.0444,"dy":0.0017,"dx":0.0017,"nx":28,"ny":28,"refTime":"2023-10-28T21:00:00:Z","depth":0,"parameterNumber":2,"parameterNumberName":"U-component_of_WINDS"},"data":[0,0,0,0,0,0,0,0,0,0,0,0,0,0,0,0,0,0,0,0,0,0,0,0,0,0,0,0,0,0,0,0,0,0,0,0,0,0,0,0,0,0,0,0,0,0,0,0,0,0,0,0,0,0,0,0,0,0,-3.1548,-3.1548,0,-3.1534,-3.1533,-3.1533,-3.151,-3.1509,-3.1509,-3.1508,-3.1492,-3.1492,-3.1492,0,0,0,0,0,0,0,0,0,0,0,0,0,-3.1558,-3.1558,-3.1548,-3.1548,-3.1548,-3.1534,-3.1533,-3.1533,-3.151,-3.1509,-3.1509,-3.1508,-3.1492,-3.1492,-3.1492,0,0,0,0,0,0,0,0,0,0,0,0,0,-3.1549,-3.1558,-3.1548,-3.1535,-3.1533,-3.1534,-3.1533,-3.1533,-3.151,-3.1509,-3.1508,-3.1508,-3.1492,-3.1492,-3.1492,-3.1505,0,0,-3.1492,-3.1492,0,0,0,0,0,0,0,0,-3.155,-3.1549,-3.1537,-3.1536,-3.1534,-3.1523,-3.1531,-3.1524,-3.151,-3.1519,-3.1508,-3.1508,-3.1503,-3.1502,-3.15,-3.1504,-3.1503,-3.1492,-3.1492,-3.1492,-3.1492,0,0,0,0,0,0,0,-3.1551,-3.155,-3.1543,-3.1537,-3.1535,-3.153,-3.1528,-3.1529,-3.1514,-3.1518,-3.1516,-3.1515,-3.1502,-3.1501,-3.15,-3.1503,-3.1492,-3.1492,-3.1492,-3.1492,-3.1519,-3.152,0,0,0,0,0,0,-3.1553,-3.155,-3.1543,-3.1542,-3.1541,-3.153,-3.1528,-3.1527,-3.1514,-3.1512,-3.1515,-3.1514,-3.1501,-3.15,-3.1499,-3.1514,-3.1492,-3.1492,-3.1492,-3.1518,-3.1519,-3.152,0,0,0,0,0,0,-3.1553,-3.1553,-3.1544,-3.1546,-3.1544,-3.1531,-3.153,-3.1527,-3.1526,-3.1512,-3.151,-3.1516,-3.15,-3.1499,-3.1504,-3.1513,-3.1492,-3.1492,-3.1518,-3.1519,-3.152,-3.1544,0,0,0,0,0,0,-3.1554,-3.1553,-3.1557,-3.1546,-3.1544,-3.1548,-3.153,-3.1527,-3.1526,-3.1523,-3.1513,-3.151,-3.15,-3.1504,-3.1504,-3.1513,-3.1492,-3.1517,-3.1518,-3.1519,-3.1542,-3.1546,-3.1549,0,0,0,0,0,-3.1554,-3.1563,-3.1557,-3.1556,-3.1549,-3.1549,-3.1548,-3.1535,-3.1527,-3.1531,-3.1523,-3.1511,-3.1513,-3.1505,-3.1505,-3.1514,-3.1516,-3.1518,-3.1519,-3.1541,-3.1545,-3.1549,0,0,0,0,0,0,-3.1574,-3.1562,-3.1554,-3.156,-3.1556,-3.1545,-3.1549,-3.154,-3.1538,-3.1535,-3.1521,-3.1518,-3.1526,-3.152,-3.1512,-3.1527,-3.1513,-3.1515,-3.1529,-3.1533,-3.1537,-3.1537,-3.1492,0,0,0,0,0,-3.158,-3.1581,-3.157,-3.1576,-3.1574,-3.1563,-3.1562,-3.1554,-3.1548,-3.1546,-3.1538,-3.1534,-3.1534,-3.1533,-3.1532,-3.1543,-3.1541,-3.1549,-3.1552,-3.1555,-3.1556,-3.1563,-3.1567,-3.1526,-3.1526,-3.1526,0,0,-3.159,-3.1583,-3.1584,-3.158,-3.1575,-3.1577,-3.1561,-3.1563,-3.1564,-3.1546,-3.155,-3.1545,-3.1539,-3.1548,-3.1551,-3.1543,-3.1568,-3.1557,-3.1559,-3.1559,-3.1565,-3.1569,-3.1573,-3.1527,-3.1527,-3.1527,0,0,-3.161,-3.1605,-3.161,-3.1607,-3.1601,-3.1594,-3.1596,-3.1587,-3.1583,-3.1588,-3.1575,-3.1577,-3.1577,-3.1574,-3.1572,-3.1596,-3.1585,-3.1596,-3.1613,-3.162,-3.1623,-3.1626,-3.1635,-3.1639,-3.1598,-3.1598,-3.1598,0,-3.1623,-3.1625,-3.1614,-3.1618,-3.1617,-3.1603,-3.1609,-3.1607,-3.1601,-3.1601,-3.1593,-3.1594,-3.1589,-3.1598,-3.1604,-3.1603,-3.1605,-3.1596,-3.1624,-3.1626,-3.1629,-3.1637,-3.1641,-3.1599,-3.1599,-3.1599,-3.1599,0,-3.1643,-3.1645,-3.165,-3.1646,-3.1646,-3.1651,-3.1642,-3.1644,-3.1637,-3.1631,-3.1637,-3.1631,-3.163,-3.1632,-3.1624,-3.164,-3.1636,-3.1626,-3.1612,-3.1634,-3.1642,-3.1645,-3.1601,-3.1601,-3.16,-3.16,0,0,-3.1671,-3.1664,-3.1666,-3.1665,-3.166,-3.1662,-3.1668,-3.1667,-3.1669,-3.1667,-3.1672,-3.1674,-3.1667,-3.1665,-3.1657,-3.1664,-3.1685,-3.1654,-3.1653,-3.166,-3.1704,-3.171,-3.1714,-3.1679,-3.1679,-3.168,-3.1704,0,-3.1689,-3.1698,-3.169,-3.1701,-3.1704,-3.1692,-3.1698,-3.1696,-3.1691,-3.1694,-3.1689,-3.1691,-3.1681,-3.168,-3.1686,-3.1681,-3.1693,-3.1679,-3.1683,-3.1684,-3.1684,-3.1718,-3.1724,-3.1747,-3.1707,-3.1708,-3.1708,0,-3.1711,-3.1711,-3.1722,-3.1719,-3.172,-3.1725,-3.1726,-3.1728,-3.1727,-3.1723,-3.1724,-3.1716,-3.1723,-3.171,-3.172,-3.1711,-3.1713,-3.1711,-3.1712,-3.171,-3.1696,-3.1718,-3.1754,-3.1758,-3.1713,-3.1712,-3.1712,0,-3.1731,-3.1734,-3.1742,-3.1742,-3.1738,-3.1742,-3.1741,-3.1739,-3.174,-3.1742,-3.1743,-3.1745,-3.1745,-3.1748,-3.1741,-3.1733,-3.1753,-3.1739,-3.175,-3.1751,-3.1753,-3.1753,-3.179,-3.1756,-3.1756,-3.1756,-3.1756,0,-3.1751,-3.1759,-3.1751,-3.1756,-3.1765,-3.1757,-3.1766,-3.1764,-3.1763,-3.1768,-3.1759,-3.1763,-3.1755,-3.1759,-3.1755,-3.1764,-3.1765,-3.1763,-3.1761,-3.1763,-3.1763,-3.1763,-3.1761,-3.1757,-3.1757,-3.1757,-3.1756,0,-3.1774,-3.1769,-3.1777,-3.1774,-3.1774,-3.1781,-3.1779,-3.1784,-3.1781,-3.1787,-3.1788,-3.1783,-3.1788,-3.1783,-3.1787,-3.1784,-3.1797,-3.1794,-3.1798,-3.1796,-3.1808,-3.1807,-3.1846,-3.1851,-3.1814,-3.1814,-3.1815,0,-3.1787,-3.1793,-3.1791,-3.1794,-3.1794,-3.1799,-3.1801,-3.1795,-3.1798,-3.1799,-3.1804,-3.1809,-3.1812,-3.1821,-3.1818,-3.1822,-3.1818,-3.1832,-3.1819,-3.1821,-3.1819,-3.1818,-3.1819,-3.1834,-3.1834,-3.1835,-3.1835,0,-3.181,-3.1809,-3.1812,-3.1816,-3.1819,-3.1822,-3.1823,-3.1827,-3.1821,-3.1825,-3.183,-3.1833,-3.1839,-3.1845,-3.1849,-3.1848,-3.1841,-3.184,-3.1843,-3.1844,-3.1846,-3.1845,-3.1804,-3.1838,-3.1838,-3.1838,-3.1838,-3.1838,-3.1828,-3.1834,-3.1835,-3.184,-3.1841,-3.1844,-3.1849,-3.1848,-3.1853,-3.1857,-3.1854,-3.1861,-3.1863,-3.1868,-3.1869,-3.1875,-3.187,-3.1874,-3.1874,-3.1875,-3.1877,-3.1847,-3.1876,-3.1876,-3.1876,-3.1876,-3.1876,0,-3.1852,-3.1853,-3.1858,-3.1861,-3.1866,-3.1861,-3.1864,-3.1868,-3.1874,-3.1877,-3.1881,-3.1889,-3.1895,-3.1895,-3.19,-3.1906,-3.1903,-3.1908,-3.1907,-3.1907,-3.1882,-3.1879,-3.191,-3.191,-3.191,-3.191,-3.191,-3.191,-3.1864,-3.1874,-3.1873,-3.1884,-3.1885,-3.1892,-3.1895,-3.1898,-3.19,-3.191,-3.1915,-3.1915,-3.1917,-3.1923,-3.1929,-3.1929,-3.1932,-3.1937,-3.1936,-3.1912,-3.1908,-3.1905,-3.1902,-3.1938,-3.1938,-3.1961,-3.1961,-3.1961]},{"header":{"parameterUnit":"m.s-1","parameterCategory":1,"la1":30.2991,"la2":30.254,"lo1":-89.0895,"lo2":-89.0444,"dy":0.0017,"dx":0.0017,"nx":28,"ny":28,"refTime":"2023-10-28T21:00:00:Z","depth":0,"parameterNumber":3,"parameterNumberName":"V-component_of_WINDS"},"data":[0,0,0,0,0,0,0,0,0,0,0,0,0,0,0,0,0,0,0,0,0,0,0,0,0,0,0,0,0,0,0,0,0,0,0,0,0,0,0,0,0,0,0,0,0,0,0,0,0,0,0,0,0,0,0,0,0,0,1.5933,1.5933,0,1.5978,1.5979,1.5979,1.6096,1.6099,1.6101,1.6103,1.6145,1.6144,1.6143,0,0,0,0,0,0,0,0,0,0,0,0,0,1.5945,1.5944,1.5933,1.5933,1.5934,1.5978,1.5979,1.5979,1.6096,1.6099,1.6102,1.6105,1.6146,1.6144,1.6143,0,0,0,0,0,0,0,0,0,0,0,0,0,1.5959,1.5943,1.5932,1.5997,1.6004,1.5978,1.5979,1.5979,1.6095,1.6099,1.6103,1.6106,1.6146,1.6145,1.6143,1.6056,0,0,1.6137,1.6136,0,0,0,0,0,0,0,0,1.5958,1.5959,1.5987,1.5993,1.6,1.6035,1.5998,1.6005,1.6094,1.606,1.6104,1.6108,1.6105,1.6107,1.6107,1.6058,1.606,1.6137,1.6136,1.6135,1.6135,0,0,0,0,0,0,0,1.5957,1.5957,1.595,1.5987,1.5995,1.6023,1.603,1.6,1.6061,1.6063,1.6072,1.6076,1.611,1.6109,1.6109,1.6061,1.6137,1.6135,1.6134,1.6134,1.5946,1.5942,0,0,0,0,0,0,1.5947,1.5956,1.5949,1.5952,1.5988,1.602,1.6027,1.602,1.6062,1.6072,1.6073,1.6081,1.611,1.6111,1.6111,1.6015,1.6135,1.6133,1.6132,1.595,1.5945,1.5941,0,0,0,0,0,0,1.5947,1.5946,1.5947,1.5956,1.5959,1.6016,1.6007,1.6019,1.6018,1.6069,1.608,1.6061,1.6113,1.6114,1.607,1.6018,1.6133,1.6131,1.5954,1.5948,1.5943,1.5819,0,0,0,0,0,0,1.5947,1.5945,1.5913,1.5955,1.5958,1.5905,1.6004,1.6017,1.6016,1.6027,1.6061,1.607,1.6116,1.6072,1.6068,1.6017,1.613,1.5959,1.5952,1.5945,1.5828,1.581,1.5794,0,0,0,0,0,1.5947,1.5874,1.5911,1.5909,1.5919,1.5902,1.5904,1.596,1.6011,1.5979,1.6012,1.6069,1.6024,1.6067,1.6063,1.6011,1.5963,1.5954,1.5945,1.5836,1.5813,1.5794,0,0,0,0,0,0,1.5822,1.5881,1.5922,1.5861,1.5876,1.5922,1.5884,1.5934,1.5933,1.5944,1.6012,1.6019,1.5966,1.5984,1.6031,1.5931,1.6003,1.5993,1.5921,1.59,1.5883,1.588,1.6128,0,0,0,0,0,1.5788,1.5771,1.5823,1.5764,1.577,1.5825,1.582,1.5862,1.588,1.5886,1.5916,1.593,1.592,1.5911,1.5904,1.5832,1.5841,1.5794,1.5777,1.5763,1.5753,1.5719,1.5699,1.5912,1.5912,1.5912,0,0,1.5717,1.5747,1.5731,1.574,1.5756,1.5736,1.5829,1.5803,1.5789,1.5882,1.5843,1.5865,1.5886,1.5828,1.5804,1.5842,1.5697,1.5752,1.574,1.5738,1.5708,1.5687,1.5669,1.5906,1.5907,1.5908,0,0,1.5576,1.5597,1.5552,1.5567,1.5592,1.563,1.5619,1.5658,1.5677,1.564,1.571,1.5694,1.5674,1.5686,1.569,1.5557,1.561,1.5553,1.5463,1.5429,1.5412,1.5397,1.5351,1.5334,1.5543,1.5543,1.5543,0,1.5484,1.5457,1.5521,1.5492,1.5494,1.558,1.5534,1.5546,1.5566,1.5565,1.5608,1.5586,1.5606,1.5553,1.5521,1.5521,1.5511,1.5549,1.541,1.5396,1.5383,1.534,1.5322,1.5536,1.5537,1.5538,1.5538,0,1.5343,1.5324,1.5284,1.5304,1.5302,1.5264,1.5322,1.5312,1.5356,1.5389,1.5351,1.5378,1.5379,1.537,1.541,1.5323,1.5346,1.5397,1.5471,1.5354,1.5315,1.5299,1.5526,1.5528,1.5531,1.5532,0,0,1.5123,1.5182,1.5166,1.5178,1.5213,1.5199,1.5166,1.5169,1.516,1.5172,1.5146,1.5128,1.5178,1.5182,1.5225,1.5194,1.5089,1.525,1.5252,1.522,1.4997,1.4958,1.4937,1.5125,1.5122,1.512,1.4995,0,1.4992,1.494,1.4998,1.4934,1.4918,1.5,1.4971,1.499,1.502,1.5011,1.5044,1.5032,1.5097,1.51,1.5074,1.5107,1.5045,1.5117,1.5101,1.51,1.5094,1.4917,1.4875,1.4756,1.498,1.4978,1.4976,0,1.4831,1.4839,1.4773,1.4816,1.4811,1.4784,1.4793,1.4783,1.4805,1.483,1.4836,1.4889,1.486,1.4932,1.4893,1.4941,1.4938,1.4954,1.4951,1.4951,1.503,1.4913,1.4719,1.4701,1.4952,1.4954,1.4956,0,1.4679,1.4672,1.4633,1.464,1.4688,1.4667,1.4686,1.4713,1.4712,1.4719,1.472,1.4722,1.4724,1.4725,1.4777,1.4825,1.4732,1.4808,1.4751,1.475,1.4727,1.4728,1.4531,1.4725,1.4725,1.4725,1.4726,0,1.4526,1.4483,1.4566,1.4541,1.4496,1.4563,1.4516,1.4543,1.4567,1.4549,1.462,1.4602,1.4673,1.4662,1.4703,1.4665,1.4664,1.4683,1.4695,1.4677,1.4675,1.4676,1.4686,1.4721,1.4722,1.4723,1.4724,0,1.4348,1.4401,1.4364,1.4414,1.4425,1.439,1.4432,1.4411,1.4448,1.4425,1.4423,1.448,1.4472,1.4525,1.4525,1.4553,1.4495,1.452,1.4487,1.4495,1.4436,1.4441,1.4233,1.4209,1.4417,1.4415,1.4413,0,1.4247,1.4216,1.4264,1.4258,1.4274,1.4263,1.4264,1.4329,1.4326,1.4351,1.4328,1.4326,1.4327,1.4309,1.435,1.4351,1.4377,1.4305,1.4378,1.4362,1.4377,1.4378,1.4376,1.4289,1.4286,1.4284,1.4282,0,1.4062,1.4091,1.409,1.4098,1.4097,1.4106,1.4119,1.411,1.4181,1.4174,1.4168,1.4169,1.4171,1.4168,1.4178,1.4197,1.4251,1.4259,1.4247,1.4228,1.4211,1.422,1.4446,1.4263,1.4265,1.4267,1.4268,1.4269,1.3921,1.3898,1.3929,1.3925,1.3943,1.3955,1.3939,1.3975,1.3971,1.3979,1.4017,1.4004,1.403,1.4049,1.4063,1.4053,1.4088,1.4068,1.4064,1.4058,1.4048,1.4212,1.4055,1.4055,1.4056,1.4056,1.4057,0,1.3741,1.3765,1.3761,1.378,1.3777,1.3831,1.3849,1.3843,1.3831,1.3851,1.3853,1.3846,1.3844,1.3885,1.3889,1.3873,1.3898,1.3872,1.3873,1.3877,1.4016,1.4027,1.3851,1.3851,1.3852,1.3852,1.3852,1.3852,1.3647,1.3612,1.3645,1.362,1.3645,1.3634,1.364,1.3651,1.3668,1.3658,1.3658,1.3686,1.3715,1.3722,1.3722,1.3735,1.3733,1.3698,1.3718,1.3847,1.3867,1.3886,1.3897,1.3697,1.3697,1.3581,1.358,1.3579]}]]